owner,sensor,date,latitude,longitude,vertical_datum,sea_water_temperature,qcFlag 
SCCF RECON,ioos:station:SCCF:16:1,2009-06-05T18:00:00Z,26.4345,-81.9647,2.5,29.74,2 
SCCF RECON,ioos:station:SCCF:16:1,2009-06-05T19:00:00Z,26.4345,-81.9647,2.5,29.8,2 
SCCF RECON,ioos:station:SCCF:16:1,2009-06-05T20:00:00Z,26.4345,-81.9647,2.5,29.84,2 
SCCF RECON,ioos:station:SCCF:16:1,2009-06-05T21:00:00Z,26.4345,-81.9647,2.5,29.96,2 
SCCF RECON,ioos:station:SCCF:16:1,2009-06-05T22:00:00Z,26.4345,-81.9647,2.5,29.9,2 
SCCF RECON,ioos:station:SCCF:16:1,2009-06-05T23:00:00Z,26.4345,-81.9647,2.5,30.01,2 
SCCF RECON,ioos:station:SCCF:16:1,2009-06-06T00:00:00Z,26.4345,-81.9647,2.5,30.06,2 
SCCF RECON,ioos:station:SCCF:16:1,2009-06-06T01:00:00Z,26.4345,-81.9647,2.5,29.77,2 
SCCF RECON,ioos:station:SCCF:16:1,2009-06-06T02:00:00Z,26.4345,-81.9647,2.5,29.82,2 
SCCF RECON,ioos:station:SCCF:16:1,2009-06-06T03:00:00Z,26.4345,-81.9647,2.5,29.77,2 
SCCF RECON,ioos:station:SCCF:16:1,2009-06-06T04:00:00Z,26.4345,-81.9647,2.5,29.63,2 
SCCF RECON,ioos:station:SCCF:16:1,2009-06-06T05:00:00Z,26.4345,-81.9647,2.5,29.63,2 
SCCF RECON,ioos:station:SCCF:16:1,2009-06-06T06:00:00Z,26.4345,-81.9647,2.5,29.7,2 
SCCF RECON,ioos:station:SCCF:16:1,2009-06-06T07:00:00Z,26.4345,-81.9647,2.5,29.77,2 
SCCF RECON,ioos:station:SCCF:16:1,2009-06-06T08:00:00Z,26.4345,-81.9647,2.5,29.75,2 
SCCF RECON,ioos:station:SCCF:16:1,2009-06-06T09:00:00Z,26.4345,-81.9647,2.5,29.74,2 
SCCF RECON,ioos:station:SCCF:16:1,2009-06-06T10:00:00Z,26.4345,-81.9647,2.5,29.7,2 
SCCF RECON,ioos:station:SCCF:16:1,2009-06-06T11:00:00Z,26.4345,-81.9647,2.5,29.65,2 
SCCF RECON,ioos:station:SCCF:16:1,2009-06-06T12:00:00Z,26.4345,-81.9647,2.5,29.6,2 
SCCF RECON,ioos:station:SCCF:16:1,2009-06-06T13:00:00Z,26.4345,-81.9647,2.5,29.6,2 
SCCF RECON,ioos:station:SCCF:16:1,2009-06-06T14:00:00Z,26.4345,-81.9647,2.5,29.54,2 
SCCF RECON,ioos:station:SCCF:16:1,2009-06-06T15:00:00Z,26.4345,-81.9647,2.5,29.49,2 
SCCF RECON,ioos:station:SCCF:16:1,2009-06-06T16:00:00Z,26.4345,-81.9647,2.5,29.4,2 
SCCF RECON,ioos:station:SCCF:16:1,2009-06-06T17:00:00Z,26.4345,-81.9647,2.5,29.44,2 
SCCF RECON,ioos:station:SCCF:16:1,2009-06-06T18:00:00Z,26.4345,-81.9647,2.5,29.49,2 
SCCF RECON,ioos:station:SCCF:16:1,2009-06-06T19:00:00Z,26.4345,-81.9647,2.5,29.58,2 
SCCF RECON,ioos:station:SCCF:16:1,2009-06-06T20:00:00Z,26.4345,-81.9647,2.5,29.56,2 
SCCF RECON,ioos:station:SCCF:16:1,2009-06-06T21:00:00Z,26.4345,-81.9647,2.5,29.81,2 
SCCF RECON,ioos:station:SCCF:16:1,2009-06-06T22:00:00Z,26.4345,-81.9647,2.5,29.55,2 
SCCF RECON,ioos:station:SCCF:16:1,2009-06-06T23:00:00Z,26.4345,-81.9647,2.5,29.72,2 
SCCF RECON,ioos:station:SCCF:16:1,2009-06-07T00:00:00Z,26.4345,-81.9647,2.5,29.98,2 
SCCF RECON,ioos:station:SCCF:16:1,2009-06-07T01:00:00Z,26.4345,-81.9647,2.5,29.77,2 
SCCF RECON,ioos:station:SCCF:16:1,2009-06-07T02:00:00Z,26.4345,-81.9647,2.5,29.72,2 
SCCF RECON,ioos:station:SCCF:16:1,2009-06-07T03:00:00Z,26.4345,-81.9647,2.5,29.59,2 
SCCF RECON,ioos:station:SCCF:16:1,2009-06-07T04:00:00Z,26.4345,-81.9647,2.5,29.29,2 
SCCF RECON,ioos:station:SCCF:16:1,2009-06-07T05:00:00Z,26.4345,-81.9647,2.5,29.25,2 
SCCF RECON,ioos:station:SCCF:16:1,2009-06-07T06:00:00Z,26.4345,-81.9647,2.5,29.26,2 
SCCF RECON,ioos:station:SCCF:16:1,2009-06-07T07:00:00Z,26.4345,-81.9647,2.5,29.17,2 
SCCF RECON,ioos:station:SCCF:16:1,2009-06-07T08:00:00Z,26.4345,-81.9647,2.5,29.14,2 
SCCF RECON,ioos:station:SCCF:16:1,2009-06-07T09:00:00Z,26.4345,-81.9647,2.5,29.12,2 
SCCF RECON,ioos:station:SCCF:16:1,2009-06-07T10:00:00Z,26.4345,-81.9647,2.5,29.04,2 
SCCF RECON,ioos:station:SCCF:16:1,2009-06-07T11:00:00Z,26.4345,-81.9647,2.5,28.96,2 
SCCF RECON,ioos:station:SCCF:16:1,2009-06-07T12:00:00Z,26.4345,-81.9647,2.5,28.93,2 
SCCF RECON,ioos:station:SCCF:16:1,2009-06-07T13:00:00Z,26.4345,-81.9647,2.5,28.82,2 
SCCF RECON,ioos:station:SCCF:16:1,2009-06-07T14:00:00Z,26.4345,-81.9647,2.5,28.84,2 
SCCF RECON,ioos:station:SCCF:16:1,2009-06-07T15:00:00Z,26.4345,-81.9647,2.5,28.97,2 
SCCF RECON,ioos:station:SCCF:16:1,2009-06-07T16:00:00Z,26.4345,-81.9647,2.5,29.12,2 
SCCF RECON,ioos:station:SCCF:16:1,2009-06-07T17:00:00Z,26.4345,-81.9647,2.5,29.27,2 
SCCF RECON,ioos:station:SCCF:16:1,2009-06-07T18:00:00Z,26.4345,-81.9647,2.5,29.31,2 
SCCF RECON,ioos:station:SCCF:16:1,2009-06-07T19:00:00Z,26.4345,-81.9647,2.5,29.27,2 
SCCF RECON,ioos:station:SCCF:16:1,2009-06-07T20:00:00Z,26.4345,-81.9647,2.5,29.24,2 
SCCF RECON,ioos:station:SCCF:16:1,2009-06-07T21:00:00Z,26.4345,-81.9647,2.5,29.27,2 
SCCF RECON,ioos:station:SCCF:16:1,2009-06-07T22:00:00Z,26.4345,-81.9647,2.5,29.41,2 
SCCF RECON,ioos:station:SCCF:16:1,2009-06-07T23:00:00Z,26.4345,-81.9647,2.5,29.21,2 
SCCF RECON,ioos:station:SCCF:16:1,2009-06-08T00:00:00Z,26.4345,-81.9647,2.5,29.46,2 
SCCF RECON,ioos:station:SCCF:16:1,2009-06-08T01:00:00Z,26.4345,-81.9647,2.5,29.28,2 
SCCF RECON,ioos:station:SCCF:16:1,2009-06-08T02:00:00Z,26.4345,-81.9647,2.5,29.13,2 
SCCF RECON,ioos:station:SCCF:16:1,2009-06-08T03:00:00Z,26.4345,-81.9647,2.5,29.07,2 
SCCF RECON,ioos:station:SCCF:16:1,2009-06-08T04:00:00Z,26.4345,-81.9647,2.5,28.87,2 
SCCF RECON,ioos:station:SCCF:16:1,2009-06-08T05:00:00Z,26.4345,-81.9647,2.5,28.71,2 
SCCF RECON,ioos:station:SCCF:16:1,2009-06-08T06:00:00Z,26.4345,-81.9647,2.5,28.59,2 
SCCF RECON,ioos:station:SCCF:16:1,2009-06-08T07:00:00Z,26.4345,-81.9647,2.5,28.54,2 
SCCF RECON,ioos:station:SCCF:16:1,2009-06-08T08:00:00Z,26.4345,-81.9647,2.5,28.55,2 
SCCF RECON,ioos:station:SCCF:16:1,2009-06-08T09:00:00Z,26.4345,-81.9647,2.5,28.55,2 
SCCF RECON,ioos:station:SCCF:16:1,2009-06-08T10:00:00Z,26.4345,-81.9647,2.5,28.56,2 
SCCF RECON,ioos:station:SCCF:16:1,2009-06-08T11:00:00Z,26.4345,-81.9647,2.5,28.55,2 
SCCF RECON,ioos:station:SCCF:16:1,2009-06-08T12:00:00Z,26.4345,-81.9647,2.5,28.52,2 
SCCF RECON,ioos:station:SCCF:16:1,2009-06-08T13:00:00Z,26.4345,-81.9647,2.5,28.44,2 
SCCF RECON,ioos:station:SCCF:16:1,2009-06-08T14:00:00Z,26.4345,-81.9647,2.5,28.48,2 
SCCF RECON,ioos:station:SCCF:16:1,2009-06-08T15:00:00Z,26.4345,-81.9647,2.5,28.61,2 
SCCF RECON,ioos:station:SCCF:16:1,2009-06-08T16:00:00Z,26.4345,-81.9647,2.5,28.85,2 
SCCF RECON,ioos:station:SCCF:16:1,2009-06-08T17:00:00Z,26.4345,-81.9647,2.5,29.22,2 
SCCF RECON,ioos:station:SCCF:16:1,2009-06-08T18:00:00Z,26.4345,-81.9647,2.5,29.47,2 
SCCF RECON,ioos:station:SCCF:16:1,2009-06-08T19:00:00Z,26.4345,-81.9647,2.5,29.57,2 
SCCF RECON,ioos:station:SCCF:16:1,2009-06-08T20:00:00Z,26.4345,-81.9647,2.5,29.42,2 
SCCF RECON,ioos:station:SCCF:16:1,2009-06-08T21:00:00Z,26.4345,-81.9647,2.5,29.66,2 
SCCF RECON,ioos:station:SCCF:16:1,2009-06-08T22:00:00Z,26.4345,-81.9647,2.5,29.56,2 
SCCF RECON,ioos:station:SCCF:16:1,2009-06-08T23:00:00Z,26.4345,-81.9647,2.5,29.36,2 
SCCF RECON,ioos:station:SCCF:16:1,2009-06-09T00:00:00Z,26.4345,-81.9647,2.5,29.7,2 
SCCF RECON,ioos:station:SCCF:16:1,2009-06-09T01:00:00Z,26.4345,-81.9647,2.5,29.83,2 
SCCF RECON,ioos:station:SCCF:16:1,2009-06-09T02:00:00Z,26.4345,-81.9647,2.5,29.5,2 
SCCF RECON,ioos:station:SCCF:16:1,2009-06-09T03:00:00Z,26.4345,-81.9647,2.5,29.35,2 
SCCF RECON,ioos:station:SCCF:16:1,2009-06-09T04:00:00Z,26.4345,-81.9647,2.5,29.35,2 
SCCF RECON,ioos:station:SCCF:16:1,2009-06-09T05:00:00Z,26.4345,-81.9647,2.5,29.18,2 
SCCF RECON,ioos:station:SCCF:16:1,2009-06-09T06:00:00Z,26.4345,-81.9647,2.5,29.17,2 
SCCF RECON,ioos:station:SCCF:16:1,2009-06-09T07:00:00Z,26.4345,-81.9647,2.5,29.14,2 
SCCF RECON,ioos:station:SCCF:16:1,2009-06-09T08:00:00Z,26.4345,-81.9647,2.5,29.11,2 
SCCF RECON,ioos:station:SCCF:16:1,2009-06-09T09:00:00Z,26.4345,-81.9647,2.5,29.11,2 
SCCF RECON,ioos:station:SCCF:16:1,2009-06-09T10:00:00Z,26.4345,-81.9647,2.5,29.02,2 
SCCF RECON,ioos:station:SCCF:16:1,2009-06-09T11:00:00Z,26.4345,-81.9647,2.5,28.97,2 
SCCF RECON,ioos:station:SCCF:16:1,2009-06-09T12:00:00Z,26.4345,-81.9647,2.5,28.98,2 
SCCF RECON,ioos:station:SCCF:16:1,2009-06-09T13:00:00Z,26.4345,-81.9647,2.5,28.94,2 
SCCF RECON,ioos:station:SCCF:16:1,2009-06-09T15:00:00Z,26.4345,-81.9647,2.5,29.06,2 
SCCF RECON,ioos:station:SCCF:16:1,2009-06-09T16:00:00Z,26.4345,-81.9647,2.5,29.15,2 
SCCF RECON,ioos:station:SCCF:16:1,2009-06-09T17:00:00Z,26.4345,-81.9647,2.5,29.25,2 
SCCF RECON,ioos:station:SCCF:16:1,2009-06-09T18:00:00Z,26.4345,-81.9647,2.5,29.48,2 
SCCF RECON,ioos:station:SCCF:16:1,2009-06-09T19:00:00Z,26.4345,-81.9647,2.5,29.55,2 
SCCF RECON,ioos:station:SCCF:16:1,2009-06-09T20:00:00Z,26.4345,-81.9647,2.5,29.62,2 
SCCF RECON,ioos:station:SCCF:16:1,2009-06-09T21:00:00Z,26.4345,-81.9647,2.5,29.7,2 
SCCF RECON,ioos:station:SCCF:16:1,2009-06-09T22:00:00Z,26.4345,-81.9647,2.5,29.88,2 
SCCF RECON,ioos:station:SCCF:16:1,2009-06-09T23:00:00Z,26.4345,-81.9647,2.5,30.04,2 
SCCF RECON,ioos:station:SCCF:16:1,2009-06-10T00:00:00Z,26.4345,-81.9647,2.5,30.06,2 
SCCF RECON,ioos:station:SCCF:16:1,2009-06-10T01:00:00Z,26.4345,-81.9647,2.5,30.31,2 
SCCF RECON,ioos:station:SCCF:16:1,2009-06-10T02:00:00Z,26.4345,-81.9647,2.5,30.08,2 
SCCF RECON,ioos:station:SCCF:16:1,2009-06-10T03:00:00Z,26.4345,-81.9647,2.5,29.91,2 
SCCF RECON,ioos:station:SCCF:16:1,2009-06-10T04:00:00Z,26.4345,-81.9647,2.5,29.81,2 
SCCF RECON,ioos:station:SCCF:16:1,2009-06-10T05:00:00Z,26.4345,-81.9647,2.5,29.55,2 
SCCF RECON,ioos:station:SCCF:16:1,2009-06-10T06:00:00Z,26.4345,-81.9647,2.5,29.14,2 
SCCF RECON,ioos:station:SCCF:16:1,2009-06-10T07:00:00Z,26.4345,-81.9647,2.5,29.32,2 
SCCF RECON,ioos:station:SCCF:16:1,2009-06-10T08:00:00Z,26.4345,-81.9647,2.5,29.41,2 
SCCF RECON,ioos:station:SCCF:16:1,2009-06-10T09:00:00Z,26.4345,-81.9647,2.5,29.47,2 
SCCF RECON,ioos:station:SCCF:16:1,2009-06-10T10:00:00Z,26.4345,-81.9647,2.5,29.43,2 
SCCF RECON,ioos:station:SCCF:16:1,2009-06-10T11:00:00Z,26.4345,-81.9647,2.5,29.44,2 
SCCF RECON,ioos:station:SCCF:16:1,2009-06-10T12:00:00Z,26.4345,-81.9647,2.5,29.41,2 
SCCF RECON,ioos:station:SCCF:16:1,2009-06-10T13:00:00Z,26.4345,-81.9647,2.5,29.39,2 
SCCF RECON,ioos:station:SCCF:16:1,2009-06-10T14:00:00Z,26.4345,-81.9647,2.5,29.4,2 
SCCF RECON,ioos:station:SCCF:16:1,2009-06-10T15:00:00Z,26.4345,-81.9647,2.5,29.35,2 
SCCF RECON,ioos:station:SCCF:16:1,2009-06-10T16:00:00Z,26.4345,-81.9647,2.5,29.39,2 
SCCF RECON,ioos:station:SCCF:16:1,2009-06-10T17:00:00Z,26.4345,-81.9647,2.5,29.66,2 
SCCF RECON,ioos:station:SCCF:16:1,2009-06-10T18:00:00Z,26.4345,-81.9647,2.5,29.99,2 
SCCF RECON,ioos:station:SCCF:16:1,2009-06-10T19:00:00Z,26.4345,-81.9647,2.5,29.94,2 
SCCF RECON,ioos:station:SCCF:16:1,2009-06-10T20:00:00Z,26.4345,-81.9647,2.5,30.02,2 
SCCF RECON,ioos:station:SCCF:16:1,2009-06-10T21:00:00Z,26.4345,-81.9647,2.5,29.92,2 
SCCF RECON,ioos:station:SCCF:16:1,2009-06-10T22:00:00Z,26.4345,-81.9647,2.5,29.84,2 
SCCF RECON,ioos:station:SCCF:16:1,2009-06-10T23:00:00Z,26.4345,-81.9647,2.5,29.83,2 
SCCF RECON,ioos:station:SCCF:16:1,2009-06-11T00:00:00Z,26.4345,-81.9647,2.5,29.8,2 
SCCF RECON,ioos:station:SCCF:16:1,2009-06-11T01:00:00Z,26.4345,-81.9647,2.5,29.71,2 
SCCF RECON,ioos:station:SCCF:16:1,2009-06-11T02:00:00Z,26.4345,-81.9647,2.5,29.82,2 
SCCF RECON,ioos:station:SCCF:16:1,2009-06-11T03:00:00Z,26.4345,-81.9647,2.5,29.78,2 
SCCF RECON,ioos:station:SCCF:16:1,2009-06-11T04:00:00Z,26.4345,-81.9647,2.5,29.75,2 
SCCF RECON,ioos:station:SCCF:16:1,2009-06-11T05:00:00Z,26.4345,-81.9647,2.5,29.69,2 
SCCF RECON,ioos:station:SCCF:16:1,2009-06-11T06:00:00Z,26.4345,-81.9647,2.5,29.43,2 
SCCF RECON,ioos:station:SCCF:16:1,2009-06-11T07:00:00Z,26.4345,-81.9647,2.5,29.51,2 
SCCF RECON,ioos:station:SCCF:16:1,2009-06-11T08:00:00Z,26.4345,-81.9647,2.5,29.71,2 
SCCF RECON,ioos:station:SCCF:16:1,2009-06-11T09:00:00Z,26.4345,-81.9647,2.5,29.81,2 
SCCF RECON,ioos:station:SCCF:16:1,2009-06-11T10:00:00Z,26.4345,-81.9647,2.5,29.83,2 
SCCF RECON,ioos:station:SCCF:16:1,2009-06-11T11:00:00Z,26.4345,-81.9647,2.5,29.73,2 
SCCF RECON,ioos:station:SCCF:16:1,2009-06-11T12:00:00Z,26.4345,-81.9647,2.5,29.87,2 
SCCF RECON,ioos:station:SCCF:16:1,2009-06-11T13:00:00Z,26.4345,-81.9647,2.5,29.81,2 
SCCF RECON,ioos:station:SCCF:16:1,2009-06-11T14:00:00Z,26.4345,-81.9647,2.5,29.75,2 
SCCF RECON,ioos:station:SCCF:16:1,2009-06-11T15:00:00Z,26.4345,-81.9647,2.5,29.66,2 
SCCF RECON,ioos:station:SCCF:16:1,2009-06-11T16:00:00Z,26.4345,-81.9647,2.5,29.72,2 
SCCF RECON,ioos:station:SCCF:16:1,2009-06-11T17:00:00Z,26.4345,-81.9647,2.5,29.77,2 
SCCF RECON,ioos:station:SCCF:16:1,2009-06-11T18:00:00Z,26.4345,-81.9647,2.5,29.65,2 
SCCF RECON,ioos:station:SCCF:16:1,2009-06-11T19:00:00Z,26.4345,-81.9647,2.5,29.84,2 
SCCF RECON,ioos:station:SCCF:16:1,2009-06-11T20:00:00Z,26.4345,-81.9647,2.5,29.98,2 
SCCF RECON,ioos:station:SCCF:16:1,2009-06-11T21:00:00Z,26.4345,-81.9647,2.5,30.06,2 
SCCF RECON,ioos:station:SCCF:16:1,2009-06-11T22:00:00Z,26.4345,-81.9647,2.5,30.14,2 
SCCF RECON,ioos:station:SCCF:16:1,2009-06-11T23:00:00Z,26.4345,-81.9647,2.5,30.57,2 
SCCF RECON,ioos:station:SCCF:16:1,2009-06-12T00:00:00Z,26.4345,-81.9647,2.5,30.3,2 
SCCF RECON,ioos:station:SCCF:16:1,2009-06-12T01:00:00Z,26.4345,-81.9647,2.5,30.1,2 
SCCF RECON,ioos:station:SCCF:16:1,2009-06-12T02:00:00Z,26.4345,-81.9647,2.5,30.42,2 
SCCF RECON,ioos:station:SCCF:16:1,2009-06-12T03:00:00Z,26.4345,-81.9647,2.5,30.45,2 
SCCF RECON,ioos:station:SCCF:16:1,2009-06-12T04:00:00Z,26.4345,-81.9647,2.5,30.38,2 
SCCF RECON,ioos:station:SCCF:16:1,2009-06-12T05:00:00Z,26.4345,-81.9647,2.5,30.41,2 
SCCF RECON,ioos:station:SCCF:16:1,2009-06-12T06:00:00Z,26.4345,-81.9647,2.5,29.91,2 
SCCF RECON,ioos:station:SCCF:16:1,2009-06-12T07:00:00Z,26.4345,-81.9647,2.5,29.73,2 
SCCF RECON,ioos:station:SCCF:16:1,2009-06-12T08:00:00Z,26.4345,-81.9647,2.5,29.8,2 
SCCF RECON,ioos:station:SCCF:16:1,2009-06-12T09:00:00Z,26.4345,-81.9647,2.5,29.97,2 
SCCF RECON,ioos:station:SCCF:16:1,2009-06-12T10:00:00Z,26.4345,-81.9647,2.5,30.01,2 
SCCF RECON,ioos:station:SCCF:16:1,2009-06-12T11:00:00Z,26.4345,-81.9647,2.5,29.98,2 
SCCF RECON,ioos:station:SCCF:16:1,2009-06-12T12:00:00Z,26.4345,-81.9647,2.5,29.99,2 
SCCF RECON,ioos:station:SCCF:16:1,2009-06-12T13:00:00Z,26.4345,-81.9647,2.5,29.96,2 
SCCF RECON,ioos:station:SCCF:16:1,2009-06-12T14:00:00Z,26.4345,-81.9647,2.5,29.94,2 
SCCF RECON,ioos:station:SCCF:16:1,2009-06-12T15:00:00Z,26.4345,-81.9647,2.5,29.95,2 
SCCF RECON,ioos:station:SCCF:16:1,2009-06-12T16:00:00Z,26.4345,-81.9647,2.5,30.11,2 
SCCF RECON,ioos:station:SCCF:16:1,2009-06-12T17:00:00Z,26.4345,-81.9647,2.5,30.1,2 
SCCF RECON,ioos:station:SCCF:16:1,2009-06-12T18:00:00Z,26.4345,-81.9647,2.5,30.1,2 
SCCF RECON,ioos:station:SCCF:16:1,2009-06-12T19:00:00Z,26.4345,-81.9647,2.5,30.27,2 
SCCF RECON,ioos:station:SCCF:16:1,2009-06-12T20:00:00Z,26.4345,-81.9647,2.5,30.09,2 
SCCF RECON,ioos:station:SCCF:16:1,2009-06-12T21:00:00Z,26.4345,-81.9647,2.5,30.23,2 
SCCF RECON,ioos:station:SCCF:16:1,2009-06-12T22:00:00Z,26.4345,-81.9647,2.5,30.43,2 
SCCF RECON,ioos:station:SCCF:16:1,2009-06-12T23:00:00Z,26.4345,-81.9647,2.5,30.6,2 
SCCF RECON,ioos:station:SCCF:16:1,2009-06-13T00:00:00Z,26.4345,-81.9647,2.5,30.69,2 
SCCF RECON,ioos:station:SCCF:16:1,2009-06-13T01:00:00Z,26.4345,-81.9647,2.5,30.51,2 
SCCF RECON,ioos:station:SCCF:16:1,2009-06-13T02:00:00Z,26.4345,-81.9647,2.5,30.25,2 
SCCF RECON,ioos:station:SCCF:16:1,2009-06-13T03:00:00Z,26.4345,-81.9647,2.5,30.54,2 
SCCF RECON,ioos:station:SCCF:16:1,2009-06-13T04:00:00Z,26.4345,-81.9647,2.5,30.6,2 
SCCF RECON,ioos:station:SCCF:16:1,2009-06-13T05:00:00Z,26.4345,-81.9647,2.5,30.53,2 
SCCF RECON,ioos:station:SCCF:16:1,2009-06-13T06:00:00Z,26.4345,-81.9647,2.5,30.49,2 
SCCF RECON,ioos:station:SCCF:16:1,2009-06-13T07:00:00Z,26.4345,-81.9647,2.5,30.29,2 
SCCF RECON,ioos:station:SCCF:16:1,2009-06-13T08:00:00Z,26.4345,-81.9647,2.5,30.13,2 
SCCF RECON,ioos:station:SCCF:16:1,2009-06-13T09:00:00Z,26.4345,-81.9647,2.5,30.1,2 
SCCF RECON,ioos:station:SCCF:16:1,2009-06-13T10:00:00Z,26.4345,-81.9647,2.5,29.91,2 
SCCF RECON,ioos:station:SCCF:16:1,2009-06-13T11:00:00Z,26.4345,-81.9647,2.5,30.01,2 
SCCF RECON,ioos:station:SCCF:16:1,2009-06-13T12:00:00Z,26.4345,-81.9647,2.5,30.02,2 
SCCF RECON,ioos:station:SCCF:16:1,2009-06-13T13:00:00Z,26.4345,-81.9647,2.5,30.03,2 
SCCF RECON,ioos:station:SCCF:16:1,2009-06-13T14:00:00Z,26.4345,-81.9647,2.5,30.22,2 
SCCF RECON,ioos:station:SCCF:16:1,2009-06-13T15:00:00Z,26.4345,-81.9647,2.5,30.31,2 
SCCF RECON,ioos:station:SCCF:16:1,2009-06-13T16:00:00Z,26.4345,-81.9647,2.5,30.37,2 
SCCF RECON,ioos:station:SCCF:16:1,2009-06-13T17:00:00Z,26.4345,-81.9647,2.5,30.41,2 
SCCF RECON,ioos:station:SCCF:16:1,2009-06-13T18:00:00Z,26.4345,-81.9647,2.5,30.37,2 
SCCF RECON,ioos:station:SCCF:16:1,2009-06-13T19:00:00Z,26.4345,-81.9647,2.5,30.14,2 
SCCF RECON,ioos:station:SCCF:16:1,2009-06-13T20:00:00Z,26.4345,-81.9647,2.5,30.15,2 
SCCF RECON,ioos:station:SCCF:16:1,2009-06-13T21:00:00Z,26.4345,-81.9647,2.5,30.28,2 
SCCF RECON,ioos:station:SCCF:16:1,2009-06-13T22:00:00Z,26.4345,-81.9647,2.5,30.43,2 
SCCF RECON,ioos:station:SCCF:16:1,2009-06-13T23:00:00Z,26.4345,-81.9647,2.5,30.65,2 
SCCF RECON,ioos:station:SCCF:16:1,2009-06-14T00:00:00Z,26.4345,-81.9647,2.5,30.78,2 
SCCF RECON,ioos:station:SCCF:16:1,2009-06-14T01:00:00Z,26.4345,-81.9647,2.5,30.68,2 
SCCF RECON,ioos:station:SCCF:16:1,2009-06-14T02:00:00Z,26.4345,-81.9647,2.5,30.46,2 
SCCF RECON,ioos:station:SCCF:16:1,2009-06-14T03:00:00Z,26.4345,-81.9647,2.5,30.39,2 
SCCF RECON,ioos:station:SCCF:16:1,2009-06-14T04:00:00Z,26.4345,-81.9647,2.5,30.53,2 
SCCF RECON,ioos:station:SCCF:16:1,2009-06-14T05:00:00Z,26.4345,-81.9647,2.5,30.58,2 
SCCF RECON,ioos:station:SCCF:16:1,2009-06-14T06:00:00Z,26.4345,-81.9647,2.5,30.52,2 
SCCF RECON,ioos:station:SCCF:16:1,2009-06-14T07:00:00Z,26.4345,-81.9647,2.5,30.38,2 
SCCF RECON,ioos:station:SCCF:16:1,2009-06-14T08:00:00Z,26.4345,-81.9647,2.5,30.31,2 
SCCF RECON,ioos:station:SCCF:16:1,2009-06-14T09:00:00Z,26.4345,-81.9647,2.5,29.95,2 
SCCF RECON,ioos:station:SCCF:16:1,2009-06-14T10:00:00Z,26.4345,-81.9647,2.5,29.92,2 
SCCF RECON,ioos:station:SCCF:16:1,2009-06-14T11:00:00Z,26.4345,-81.9647,2.5,29.89,2 
SCCF RECON,ioos:station:SCCF:16:1,2009-06-14T12:00:00Z,26.4345,-81.9647,2.5,29.85,2 
SCCF RECON,ioos:station:SCCF:16:1,2009-06-14T13:00:00Z,26.4345,-81.9647,2.5,29.86,2 
SCCF RECON,ioos:station:SCCF:16:1,2009-06-14T14:00:00Z,26.4345,-81.9647,2.5,29.94,2 
SCCF RECON,ioos:station:SCCF:16:1,2009-06-14T15:00:00Z,26.4345,-81.9647,2.5,29.92,2 
SCCF RECON,ioos:station:SCCF:16:1,2009-06-14T16:00:00Z,26.4345,-81.9647,2.5,29.97,2 
SCCF RECON,ioos:station:SCCF:16:1,2009-06-14T17:00:00Z,26.4345,-81.9647,2.5,30.04,2 
SCCF RECON,ioos:station:SCCF:16:1,2009-06-14T18:00:00Z,26.4345,-81.9647,2.5,30.06,2 
SCCF RECON,ioos:station:SCCF:16:1,2009-06-14T19:00:00Z,26.4345,-81.9647,2.5,30.08,2 
SCCF RECON,ioos:station:SCCF:16:1,2009-06-14T20:00:00Z,26.4345,-81.9647,2.5,30.14,2 
SCCF RECON,ioos:station:SCCF:16:1,2009-06-14T21:00:00Z,26.4345,-81.9647,2.5,30.19,2 
SCCF RECON,ioos:station:SCCF:16:1,2009-06-14T22:00:00Z,26.4345,-81.9647,2.5,30.2,2 
SCCF RECON,ioos:station:SCCF:16:1,2009-06-14T23:00:00Z,26.4345,-81.9647,2.5,30.16,2 
SCCF RECON,ioos:station:SCCF:16:1,2009-06-15T00:00:00Z,26.4345,-81.9647,2.5,30.26,2 
SCCF RECON,ioos:station:SCCF:16:1,2009-06-15T01:00:00Z,26.4345,-81.9647,2.5,30.57,2 
SCCF RECON,ioos:station:SCCF:16:1,2009-06-15T02:00:00Z,26.4345,-81.9647,2.5,30.57,2 
SCCF RECON,ioos:station:SCCF:16:1,2009-06-15T03:00:00Z,26.4345,-81.9647,2.5,30.52,2 
SCCF RECON,ioos:station:SCCF:16:1,2009-06-15T04:00:00Z,26.4345,-81.9647,2.5,30.42,2 
SCCF RECON,ioos:station:SCCF:16:1,2009-06-15T05:00:00Z,26.4345,-81.9647,2.5,30.48,2 
SCCF RECON,ioos:station:SCCF:16:1,2009-06-15T06:00:00Z,26.4345,-81.9647,2.5,30.52,2 
SCCF RECON,ioos:station:SCCF:16:1,2009-06-15T07:00:00Z,26.4345,-81.9647,2.5,30.51,2 
SCCF RECON,ioos:station:SCCF:16:1,2009-06-15T08:00:00Z,26.4345,-81.9647,2.5,30.05,2 
SCCF RECON,ioos:station:SCCF:16:1,2009-06-15T09:00:00Z,26.4345,-81.9647,2.5,30.03,2 
SCCF RECON,ioos:station:SCCF:16:1,2009-06-15T10:00:00Z,26.4345,-81.9647,2.5,29.86,2 
SCCF RECON,ioos:station:SCCF:16:1,2009-06-15T11:00:00Z,26.4345,-81.9647,2.5,29.78,2 
SCCF RECON,ioos:station:SCCF:16:1,2009-06-15T12:00:00Z,26.4345,-81.9647,2.5,29.76,2 
SCCF RECON,ioos:station:SCCF:16:1,2009-06-15T13:00:00Z,26.4345,-81.9647,2.5,29.79,2 
SCCF RECON,ioos:station:SCCF:16:1,2009-06-15T14:00:00Z,26.4345,-81.9647,2.5,29.84,2 
SCCF RECON,ioos:station:SCCF:16:1,2009-06-15T15:00:00Z,26.4345,-81.9647,2.5,29.92,2 
SCCF RECON,ioos:station:SCCF:16:1,2009-06-15T16:00:00Z,26.4345,-81.9647,2.5,30.07,2 
SCCF RECON,ioos:station:SCCF:16:1,2009-06-15T17:00:00Z,26.4345,-81.9647,2.5,30.16,2 
SCCF RECON,ioos:station:SCCF:16:1,2009-06-15T18:00:00Z,26.4345,-81.9647,2.5,30.89,2 
SCCF RECON,ioos:station:SCCF:16:1,2009-06-15T19:00:00Z,26.4345,-81.9647,2.5,30.8,2 
SCCF RECON,ioos:station:SCCF:16:1,2009-06-15T20:00:00Z,26.4345,-81.9647,2.5,30.66,2 
SCCF RECON,ioos:station:SCCF:16:1,2009-06-15T21:00:00Z,26.4345,-81.9647,2.5,30.91,2 
SCCF RECON,ioos:station:SCCF:16:1,2009-06-15T22:00:00Z,26.4345,-81.9647,2.5,30.8,2 
SCCF RECON,ioos:station:SCCF:16:1,2009-06-15T23:00:00Z,26.4345,-81.9647,2.5,30.71,2 
SCCF RECON,ioos:station:SCCF:16:1,2009-06-16T00:00:00Z,26.4345,-81.9647,2.5,30.72,2 
SCCF RECON,ioos:station:SCCF:16:1,2009-06-16T01:00:00Z,26.4345,-81.9647,2.5,30.62,2 
SCCF RECON,ioos:station:SCCF:16:1,2009-06-16T02:00:00Z,26.4345,-81.9647,2.5,30.65,2 
SCCF RECON,ioos:station:SCCF:16:1,2009-06-16T03:00:00Z,26.4345,-81.9647,2.5,30.76,2 
SCCF RECON,ioos:station:SCCF:16:1,2009-06-16T04:00:00Z,26.4345,-81.9647,2.5,30.73,2 
SCCF RECON,ioos:station:SCCF:16:1,2009-06-16T05:00:00Z,26.4345,-81.9647,2.5,30.83,2 
SCCF RECON,ioos:station:SCCF:16:1,2009-06-16T06:00:00Z,26.4345,-81.9647,2.5,30.92,2 
SCCF RECON,ioos:station:SCCF:16:1,2009-06-16T07:00:00Z,26.4345,-81.9647,2.5,30.81,2 
SCCF RECON,ioos:station:SCCF:16:1,2009-06-16T08:00:00Z,26.4345,-81.9647,2.5,30.76,2 
SCCF RECON,ioos:station:SCCF:16:1,2009-06-16T09:00:00Z,26.4345,-81.9647,2.5,30.41,2 
SCCF RECON,ioos:station:SCCF:16:1,2009-06-16T10:00:00Z,26.4345,-81.9647,2.5,30.27,2 
SCCF RECON,ioos:station:SCCF:16:1,2009-06-16T11:00:00Z,26.4345,-81.9647,2.5,30.23,2 
SCCF RECON,ioos:station:SCCF:16:1,2009-06-16T12:00:00Z,26.4345,-81.9647,2.5,30.15,2 
SCCF RECON,ioos:station:SCCF:16:1,2009-06-16T13:00:00Z,26.4345,-81.9647,2.5,30.16,2 
SCCF RECON,ioos:station:SCCF:16:1,2009-06-16T14:00:00Z,26.4345,-81.9647,2.5,30.19,2 
SCCF RECON,ioos:station:SCCF:16:1,2009-06-16T15:00:00Z,26.4345,-81.9647,2.5,30.29,2 
SCCF RECON,ioos:station:SCCF:16:1,2009-06-16T16:00:00Z,26.4345,-81.9647,2.5,30.33,2 
SCCF RECON,ioos:station:SCCF:16:1,2009-06-16T17:00:00Z,26.4345,-81.9647,2.5,30.47,2 
SCCF RECON,ioos:station:SCCF:16:1,2009-06-16T18:00:00Z,26.4345,-81.9647,2.5,30.74,2 
SCCF RECON,ioos:station:SCCF:16:1,2009-06-16T19:00:00Z,26.4345,-81.9647,2.5,30.88,2 
SCCF RECON,ioos:station:SCCF:16:1,2009-06-16T20:00:00Z,26.4345,-81.9647,2.5,30.9,2 
SCCF RECON,ioos:station:SCCF:16:1,2009-06-16T21:00:00Z,26.4345,-81.9647,2.5,31.05,2 
SCCF RECON,ioos:station:SCCF:16:1,2009-06-16T22:00:00Z,26.4345,-81.9647,2.5,30.96,2 
SCCF RECON,ioos:station:SCCF:16:1,2009-06-16T23:00:00Z,26.4345,-81.9647,2.5,31.12,2 
SCCF RECON,ioos:station:SCCF:16:1,2009-06-17T00:00:00Z,26.4345,-81.9647,2.5,30.97,2 
SCCF RECON,ioos:station:SCCF:16:1,2009-06-17T01:00:00Z,26.4345,-81.9647,2.5,30.89,2 
SCCF RECON,ioos:station:SCCF:16:1,2009-06-17T02:00:00Z,26.4345,-81.9647,2.5,30.83,2 
SCCF RECON,ioos:station:SCCF:16:1,2009-06-17T03:00:00Z,26.4345,-81.9647,2.5,30.79,2 
SCCF RECON,ioos:station:SCCF:16:1,2009-06-17T04:00:00Z,26.4345,-81.9647,2.5,30.71,2 
SCCF RECON,ioos:station:SCCF:16:1,2009-06-17T05:00:00Z,26.4345,-81.9647,2.5,30.77,2 
SCCF RECON,ioos:station:SCCF:16:1,2009-06-17T06:00:00Z,26.4345,-81.9647,2.5,30.64,2 
SCCF RECON,ioos:station:SCCF:16:1,2009-06-17T07:00:00Z,26.4345,-81.9647,2.5,30.59,2 
SCCF RECON,ioos:station:SCCF:16:1,2009-06-17T08:00:00Z,26.4345,-81.9647,2.5,30.65,2 
SCCF RECON,ioos:station:SCCF:16:1,2009-06-17T09:00:00Z,26.4345,-81.9647,2.5,30.49,2 
SCCF RECON,ioos:station:SCCF:16:1,2009-06-17T10:00:00Z,26.4345,-81.9647,2.5,30.25,2 
SCCF RECON,ioos:station:SCCF:16:1,2009-06-17T11:00:00Z,26.4345,-81.9647,2.5,30.04,2 